Eagle Creek, IN

5:52 PM EDT on July 24, 2017 (GMT -0400)
Eagle Creek

Weather History for KEYE - February, 2014

Change the Weather History Date:

Wednesday, February 19, 2014

  Actual Average Record
Temperature  
Mean Temperature 40 °F 33 °F  
Max Temperature 46 °F 41 °F 66 °F (2017)
Min Temperature 34 °F 25 °F -5 °F (2015)
Degree Days  
Heating Degree Days 25 32  
Month to date heating degree days 863 651  
Since 1 July heating degree days 4496 3852  
Cooling Degree Days 0 0  
Month to date cooling degree days 0 0  
Year to date cooling degree days 0 0  
Moisture  
Dew Point 30 °F    
Average Humidity 63    
Maximum Humidity 76    
Minimum Humidity 49    
Precipitation  
Precipitation 0.00 in 0.08 in 0.55 in (2002)
Month to date precipitation 2.06 1.40  
Year to date precipitation 3.94 3.61  
Sea Level Pressure  
Sea Level Pressure 29.91 in    
Wind  
Wind Speed 7 mph (WSW)    
Max Wind Speed 20 mph    
Max Gust Speed 25 mph    
Visibility 10 miles    
Events      
T = Trace of Precipitation, MM = Missing Value Source: NWS Daily Summary

Daily Weather History Graph

Daily Weather History Graph

Search for Another Location

Airport or City:

Trip Planner

Search our weather history database for the weather conditions in past years. The results will help you decide how hot, cold, wet, or windy it might be!

Date:

Astronomy

Feb. 19, 2014 Rise Set
Actual Time 7:32 AM EST 6:25 PM EST
Civil Twilight 7:05 AM EST 6:53 PM EST
Nautical Twilight 6:33 AM EST 7:25 PM EST
Astronomical Twilight 6:02 AM EST 7:56 PM EST
Moon 11:18 PM EST (2/19) 9:38 AM EST (2/19)
Length of Visible Light 11h 48m
Length of Day
10h 53m
Waning Gibbous, 80% of the Moon is Illuminated
Feb 19
Waning Gibbous
Feb 22
Last Quarter
Mar 1
New
Mar 8
First Quarter
Mar 16
Full

Hourly Weather History & Observations

Time (EST) Temp. Windchill Dew Point Humidity Pressure Visibility Wind Dir Wind Speed Gust Speed Precip Events Conditions
12:53 AM 44.1 °F 40.1 °F 28.0 °F 53% 29.73 in 10.0 mi SSW 6.9 mph - N/A   Clear
1:53 AM 45.0 °F 40.6 °F 30.0 °F 56% 29.70 in 10.0 mi SW 8.1 mph - N/A   Clear
2:53 AM 43.0 °F 40.3 °F 30.9 °F 62% 29.70 in 10.0 mi SW 4.6 mph - N/A   Scattered Clouds
3:53 AM 45.0 °F 41.8 °F 35.1 °F 68% 29.70 in 10.0 mi WSW 5.8 mph - N/A   Clear
4:53 AM 44.1 °F 39.5 °F 34.0 °F 68% 29.69 in 10.0 mi West 8.1 mph - N/A   Clear
5:53 AM 41.0 °F 35.2 °F 33.1 °F 73% 29.72 in 10.0 mi West 9.2 mph - N/A   Clear
6:53 AM 37.0 °F 27.0 °F 28.9 °F 73% 29.78 in 10.0 mi WNW 18.4 mph 25.3 mph N/A   Clear
7:53 AM 35.1 °F 26.4 °F 28.0 °F 76% 29.83 in 10.0 mi WNW 12.7 mph - N/A   Clear
8:53 AM 35.1 °F 25.9 °F 27.0 °F 72% 29.88 in 10.0 mi WNW 13.8 mph - N/A   Clear
9:53 AM 37.0 °F 28.5 °F 27.0 °F 67% 29.92 in 10.0 mi WNW 13.8 mph 20.7 mph N/A   Clear
10:53 AM 37.9 °F 30.5 °F 28.9 °F 70% 29.97 in 10.0 mi West 11.5 mph 19.6 mph N/A   Clear
11:53 AM 39.9 °F 35.1 °F 30.0 °F 68% 29.99 in 10.0 mi West 6.9 mph - N/A   Clear
12:53 PM 41.0 °F 35.2 °F 30.0 °F 65% 29.99 in 10.0 mi West 9.2 mph - N/A   Clear
1:53 PM 43.0 °F 40.3 °F 30.0 °F 60% 29.99 in 10.0 mi Variable 4.6 mph - N/A   Clear
2:53 PM 44.1 °F 39.5 °F 30.0 °F 58% 30.00 in 10.0 mi West 8.1 mph - N/A   Clear
3:53 PM 45.0 °F 41.2 °F 30.0 °F 56% 30.04 in 10.0 mi Variable 6.9 mph - N/A   Clear
4:53 PM 44.1 °F 42.5 °F 28.9 °F 55% 30.06 in 10.0 mi West 3.5 mph - N/A   Clear
5:53 PM 42.1 °F - 28.9 °F 60% 30.05 in 10.0 mi Calm Calm - N/A   Clear
6:53 PM 39.9 °F 37.8 °F 30.0 °F 68% 30.04 in 10.0 mi East 3.5 mph - N/A   Clear
7:53 PM 37.9 °F 33.5 °F 28.9 °F 70% 30.01 in 10.0 mi East 5.8 mph - N/A   Clear
8:53 PM 37.0 °F 33.3 °F 30.0 °F 76% 30.04 in 10.0 mi SSE 4.6 mph - N/A   Clear
9:53 PM 37.0 °F 34.5 °F 30.0 °F 76% 30.01 in 10.0 mi East 3.5 mph - N/A   Clear
10:53 PM 37.0 °F 34.5 °F 28.9 °F 73% 30.04 in 10.0 mi SSE 3.5 mph - N/A   Clear
11:53 PM 36.0 °F 32.1 °F 28.9 °F 76% 30.00 in 10.0 mi ESE 4.6 mph - N/A   Clear